Location: Newport (historical)
(41.0531°N, 80.5740°W)
Time: 10:43:21
(UTC+00:00)

Daily predictions for brighter satellites

Satellite Brightness Start Highest point End
(mag) Time Altitude Azimuth Time Altitude Azimuth Time Altitude Azimuth
Cosmos 1607 4.0 22:20:56 10° NNW 22:27:12 80° ENE 22:33:29 10° SE
ERBS 3.0 22:26:32 10° WSW 22:29:46 47° NW 22:33:00 10° NE
Meteor 2-3 Rocket 4.3 22:25:07 10° NNW 22:30:53 68° W 22:36:33 10° S
Cosmos 1238 Rocket 2.9 22:28:24 10° N 22:32:23 72° W 22:35:42 10° S
Cosmos 1464 Rocket 4.3 22:30:35 10° N 22:36:23 41° ENE 22:42:07 10° SSE
YAOGAN 1 4.3 22:35:04 10° E 22:37:04 13° ENE 22:39:04 10° NE
Cosmos 1538 Rocket 4.4 22:32:46 10° SSW 22:38:00 68° WNW 22:43:20 10° NNE
CORIOLIS 4.1 22:43:59 10° SSE 22:49:20 69° ENE 22:54:45 10° N
SeaSat 1 3.1 22:45:17 10° ESE 22:49:37 32° NE 22:53:59 10° N
Cosmos 1869 3.6 22:46:18 10° SSW 22:50:13 68° W 22:54:09 10° N
Cosmos 2219 4.3 22:46:46 10° NW 22:52:10 49° WSW 22:57:33 10° S
PSLV R/B 3.2 22:49:44 10° W 22:52:13 51° SSW 22:54:37 11° ESE
Feng Yun 1-1 Rocket 4.3 22:48:17 10° SSE 22:53:53 87° WSW 22:59:23 10° NNW
Cosmos 1633 2.6 22:52:10 10° N 22:55:46 56° E 22:59:19 10° SSE
SL-16 R/B 4.0 22:55:45 10° ESE 22:56:48 11° E 22:56:48 11° E
H-2A R/B 2.7 22:53:28 10° SSE 22:57:19 88° ENE 23:01:08 10° NNW
Cosmos 1980 Rocket 2.6 22:53:10 10° S 22:58:25 41° ESE 23:03:44 10° NE
Envisat 3.2 22:54:37 10° SE 22:59:30 49° ENE 23:04:24 10° N
SKYMED 2 4.1 22:58:07 10° NNE 23:02:11 37° E 23:06:12 10° SSE
NOSS 2-3 (E) 3.6 23:00:17 10° SSW 23:04:34 89° WNW 23:09:32 10° NE
Cosmos 2297 Rocket 2.9 23:01:01 10° NNW 23:06:34 58° WSW 23:12:04 10° S
Cosmos 2227 Rocket 2.8 23:01:29 10° NNW 23:07:04 62° WSW 23:12:37 10° S
Cosmos 1805 Rocket 4.3 23:03:01 10° NNW 23:07:17 56° W 23:11:35 10° S
Cosmos 1356 Rocket 4.4 23:04:48 10° SSW 23:08:51 50° WNW 23:12:59 10° N
NOSS 3-1 (C) 4.4 23:06:16 10° WSW 23:11:30 41° NW 23:17:29 10° NNE
Okean-O 2.5 23:07:55 10° SSE 23:12:20 84° ENE 23:16:48 10° NNW
NOSS 3-1 (A) 3.8 23:07:22 10° SW 23:12:48 59° NW 23:19:03 10° NNE
GPS 2-04 Rocket1 4.0 23:10:50 10° SW 23:13:39 23° SSE 23:15:22 16° SE
NOSS 2-3 (D) 3.7 23:09:56 10° SW 23:14:13 79° NW 23:18:45 12° NNE
NOAA 12 4.1 23:09:37 10° SSE 23:14:56 85° ENE 23:20:18 10° NNW
Cosmos 397 4.5 23:11:31 10° NNW 23:15:31 57° ENE 23:19:49 10° SE
GEOS 3 Rocket 3.8 23:17:05 10° NNE 23:22:19 74° NW 23:27:35 10° SW
Cosmos 1371 Rocket 4.1 23:18:53 10° N 23:23:56 50° ENE 23:28:57 10° SE
CZ-4 R/B 1.6 23:20:09 10° SSE 23:24:09 49° ENE 23:28:05 10° N
Cosmos 158 Rocket 4.1 23:19:03 10° S 23:24:14 57° ESE 23:28:39 14° NNE
Cosmos 2263 Rocket 3.2 23:19:51 10° N 23:24:16 23° NE 23:24:46 23° ENE
SMAP 4.5 23:21:28 10° S 23:25:51 41° W 23:30:16 10° NNW
Lacrosse 4 Rocket 2.9 23:22:45 10° WSW 23:26:27 32° NW 23:30:08 10° N
Cosmos 2369 4.3 23:22:03 10° SW 23:27:37 58° WNW 23:33:15 10° NNE
Geosat 4.1 23:23:02 10° NNE 23:28:04 78° WNW 23:33:05 10° SSW
YAOGAN 6 2.4 23:24:49 10° SSE 23:28:15 60° ENE 23:31:43 10° N
Centaur D-1A AC-31 3.6 23:30:23 10° SSE 23:31:21 11° SSE 23:32:27 10° SE
ATLAS 5 CENTAUR R/B 4.0 23:26:33 10° NW 23:32:08 39° WSW 23:38:20 10° S
SL-8 R/B 4.0 23:28:27 10° SW 23:33:05 50° SE 23:34:50 33° E
Cosmos 1633 Rocket 3.4 23:29:55 10° NNW 23:34:19 69° W 23:38:42 10° S
CZ-4 R/B 4.3 23:30:21 10° SSE 23:34:27 71° ENE 23:38:36 10° N
FengYun 1-2 T 4.1 23:29:03 10° SSE 23:34:33 78° ENE 23:40:04 10° N
Cosmos 2228 Rocket 3.5 23:30:56 10° SSE 23:35:02 38° E 23:35:48 35° ENE
Cosmos 2112 Rocket 4.2 23:30:13 10° SSW 23:35:24 74° WNW 23:40:39 10° NNE
Cosmos 2034 Rocket 4.0 23:29:11 10° N 23:35:35 87° E 23:41:57 10° S
Cosmos 1697 Rocket 3.4 23:31:05 10° SW 23:36:35 52° WNW 23:42:07 10° NNE
Cosmos 2082 4.4 23:32:00 10° NNW 23:37:30 56° WSW 23:42:58 10° S
Cosmos 1151 Rocket 3.1 23:34:34 10° S 23:38:55 80° W 23:43:20 10° N
Cosmos 1680 Rocket 4.1 23:36:25 10° SW 23:41:31 55° WNW 23:46:41 10° N
Ariane Rocket 4.2 23:44:24 23° NNE 23:44:24 23° NNE 23:46:57 10° N
Cosmos 2360 4.4 23:37:48 10° SSW 23:43:28 71° WNW 23:48:58 11° NNE
Cosmos 1933 3.2 23:40:07 10° S 23:44:08 63° E 23:45:33 37° NNE
Cosmos 2278 4.3 23:40:25 10° SW 23:45:59 56° WNW 23:51:36 10° NNE
Cosmos 1328 Rocket 4.1 23:41:58 10° SSW 23:46:20 60° W 23:50:43 10° N
Cosmos 1515 Rocket 3.4 23:45:23 10° S 23:49:47 89° E 23:53:24 15° N
Cosmos 1933 Rocket 3.4 23:45:34 10° N 23:49:54 67° E 23:54:13 10° SSE
COSMO-SKYMED 1 3.0 23:45:54 10° N 23:50:12 62° WNW 23:54:29 10° SSW
Cosmos 1634 Rocket 4.0 23:47:36 10° N 23:53:39 52° ENE 23:59:37 10° SSE
